| time (UTC) | temp F | wind direction | speed knots | gust knots | rain 1hr in | rain 24hr in | rain mn in | humidity % | barometer mb |
| 20260504220746 | 79 | 187 | 1.7 | 7.8 | 0.00 | 0.00 | 0.00 | 68 | 1011.2 |
| 20260504220247 | 80 | 167 | 1.7 | 6.1 | 0.00 | 0.00 | 0.00 | 68 | 1011.3 |
| 20260504215736 | 80 | 206 | 1.7 | 6.1 | 0.00 | 0.00 | 0.00 | 68 | 1011.3 |
| 20260504215511 | 80 | 169 | 1.7 | 6.1 | 0.00 | 0.00 | 0.00 | 65 | 1011.3 |
| 20260504214739 | 80 | 157 | 1.7 | 6.1 | 0.00 | 0.00 | 0.00 | 66 | 1011.3 |
| 20260504214238 | 80 | 105 | 1.7 | 6.1 | 0.00 | 0.00 | 0.00 | 65 | 1011.4 |
| 20260504213737 | 80 | 209 | 1.7 | 6.1 | 0.00 | 0.00 | 0.00 | 67 | 1011.4 |
| 20260504213238 | 80 | 125 | 1.7 | 6.1 | 0.00 | 0.00 | 0.00 | 66 | 1011.5 |
| 20260504212737 | 80 | 82 | 1.7 | 7.0 | 0.00 | 0.00 | 0.00 | 65 | 1011.5 |
| 20260504212238 | 81 | 165 | 1.7 | 7.8 | 0.00 | 0.00 | 0.00 | 65 | 1011.6 |
| 20260504212010 | 81 | 138 | 1.7 | 7.8 | 0.00 | 0.00 | 0.00 | 64 | 1011.5 |
| 20260504211859 | 81 | 159 | 1.7 | 6.1 | 0.00 | 0.00 | 0.00 | 64 | 1011.6 |
| 20260504210739 | 81 | 144 | 1.7 | 8.7 | 0.00 | 0.00 | 0.00 | 63 | 1011.6 |
| 20260504210238 | 82 | 218 | 2.6 | 8.7 | 0.00 | 0.00 | 0.00 | 65 | 1011.7 |
| 20260504205738 | 81 | 128 | 1.7 | 6.1 | 0.00 | 0.00 | 0.00 | 65 | 1011.8 |
| 20260504205237 | 81 | 136 | 1.7 | 4.3 | 0.00 | 0.00 | 0.00 | 63 | 1012.0 |
| 20260504204736 | 82 | 208 | 2.6 | 5.2 | 0.00 | 0.00 | 0.00 | 64 | 1012.0 |
| 20260504204506 | 81 | 193 | 2.6 | 6.1 | 0.00 | 0.00 | 0.00 | 63 | 1012.0 |
| 20260504203733 | 82 | 156 | 2.6 | 6.1 | 0.00 | 0.00 | 0.00 | 62 | 1012.0 |
| 20260504203236 | 82 | 159 | 2.6 | 8.7 | 0.00 | 0.00 | 0.00 | 63 | 1012.0 |
| 20260504202734 | 82 | 141 | 1.7 | 8.7 | 0.00 | 0.00 | 0.00 | 63 | 1012.2 |
| 20260504202230 | 81 | 140 | 2.6 | 7.0 | 0.00 | 0.00 | 0.00 | 64 | 1012.2 |
| 20260504201729 | 81 | 132 | 2.6 | 7.0 | 0.00 | 0.00 | 0.00 | 63 | 1012.4 |
| 20260504201230 | 81 | 208 | 1.7 | 6.1 | 0.00 | 0.00 | 0.00 | 62 | 1012.5 |
| 20260504200729 | 80 | 128 | 1.7 | 8.7 | 0.00 | 0.00 | 0.00 | 63 | 1012.5 |
| 20260504200230 | 81 | 180 | 2.6 | 8.7 | 0.00 | 0.00 | 0.00 | 63 | 1012.7 |
| 20260504195724 | 81 | 152 | 2.6 | 8.7 | 0.00 | 0.00 | 0.00 | 64 | 1012.7 |
| 20260504195226 | 81 | 194 | 2.6 | 8.7 | 0.00 | 0.00 | 0.00 | 61 | 1012.8 |
| 20260504194724 | 82 | 200 | 2.6 | 8.7 | 0.00 | 0.00 | 0.00 | 62 | 1012.8 |
| 20260504194226 | 82 | 196 | 2.6 | 8.7 | 0.00 | 0.00 | 0.00 | 61 | 1012.8 |
| 20260504193722 | 81 | 93 | 2.6 | 8.7 | 0.00 | 0.00 | 0.00 | 62 | 1013.0 |
| 20260504193225 | 82 | 136 | 1.7 | 8.7 | 0.00 | 0.00 | 0.00 | 61 | 1012.9 |
| 20260504192950 | 82 | 138 | 2.6 | 8.7 | 0.00 | 0.00 | 0.00 | 61 | 1012.9 |
| 20260504192219 | 81 | 144 | 1.7 | 7.8 | 0.00 | 0.00 | 0.00 | 61 | 1013.1 |
| 20260504191718 | 82 | 138 | 2.6 | 7.0 | 0.00 | 0.00 | 0.00 | 59 | 1013.2 |
| 20260504191215 | 82 | 167 | 1.7 | 7.0 | 0.00 | 0.00 | 0.00 | 61 | 1013.1 |
| 20260504190719 | 81 | 171 | 2.6 | 7.0 | 0.00 | 0.00 | 0.00 | 62 | 1013.4 |
| 20260504190715 | 81 | 163 | 1.7 | 6.1 | 0.00 | 0.00 | 0.00 | 64 | 1013.2 |
| 20260504185715 | 80 | 163 | 2.6 | 7.0 | 0.00 | 0.00 | 0.00 | 62 | 1013.3 |
| 20260504185211 | 81 | 161 | 2.6 | 7.8 | 0.00 | 0.00 | 0.00 | 61 | 1013.4 |
| 20260504184710 | 81 | 207 | 2.6 | 7.8 | 0.00 | 0.00 | 0.00 | 61 | 1013.5 |
| 20260504184210 | 82 | 121 | 2.6 | 7.8 | 0.00 | 0.00 | 0.00 | 62 | 1013.6 |
| 20260504183940 | 81 | 182 | 2.6 | 7.8 | 0.00 | 0.00 | 0.00 | 60 | 1013.6 |
| 20260504183206 | 81 | 102 | 2.6 | 7.8 | 0.00 | 0.00 | 0.00 | 64 | 1013.5 |
| 20260504182709 | 81 | 195 | 1.7 | 8.7 | 0.00 | 0.00 | 0.00 | 62 | 1013.4 |
| 20260504182209 | 81 | 99 | 1.7 | 8.7 | 0.00 | 0.00 | 0.00 | 64 | 1013.6 |
| 20260504181708 | 81 | 140 | 2.6 | 8.7 | 0.00 | 0.00 | 0.00 | 62 | 1013.6 |
| 20260504181437 | 81 | 155 | 2.6 | 9.6 | 0.00 | 0.00 | 0.00 | 60 | 1013.7 |
| 20260504181324 | 81 | 165 | 1.7 | 9.6 | 0.00 | 0.00 | 0.00 | 62 | 1013.9 |
| 20260504180201 | 80 | 180 | 2.6 | 9.6 | 0.00 | 0.00 | 0.00 | 64 | 1014.0 |
| 20260504175700 | 80 | 146 | 2.6 | 9.6 | 0.00 | 0.00 | 0.00 | 63 | 1014.1 |
| 20260504175200 | 80 | 144 | 2.6 | 8.7 | 0.00 | 0.00 | 0.00 | 63 | 1014.1 |
| 20260504174701 | 79 | 128 | 1.7 | 7.0 | 0.00 | 0.00 | 0.00 | 64 | 1014.1 |
| 20260504174432 | 79 | 140 | 1.7 | 7.0 | 0.00 | 0.00 | 0.00 | 63 | 1014.3 |
| 20260504173658 | 80 | 165 | 2.6 | 7.0 | 0.00 | 0.00 | 0.00 | 62 | 1014.2 |
| 20260504173427 | 80 | 166 | 1.7 | 7.0 | 0.00 | 0.00 | 0.00 | 61 | 1014.2 |
| 20260504172656 | 80 | 150 | 1.7 | 5.2 | 0.00 | 0.00 | 0.00 | 62 | 1014.4 |
| 20260504172154 | 80 | 90 | 2.6 | 8.7 | 0.00 | 0.00 | 0.00 | 62 | 1014.5 |
| 20260504171658 | 80 | 152 | 2.6 | 8.7 | 0.00 | 0.00 | 0.00 | 64 | 1014.7 |
| 20260504171152 | 79 | 5 | 2.6 | 8.7 | 0.00 | 0.00 | 0.00 | 62 | 1014.7 |
| 20260504170652 | 79 | 134 | 2.6 | 8.7 | 0.00 | 0.00 | 0.00 | 65 | 1014.8 |
| 20260504170150 | 79 | 343 | 2.6 | 7.8 | 0.00 | 0.00 | 0.00 | 62 | 1014.8 |
| 20260504160142 | 77 | 160 | 1.7 | 9.6 | 0.00 | 0.00 | 0.00 | 68 | 1015.7 |
| 20260504151130 | 73 | 136 | 3.5 | 9.6 | 0.00 | 0.00 | 0.00 | 73 | 1015.7 |
| 20260504150628 | 73 | 121 | 2.6 | 7.0 | 0.00 | 0.00 | 0.00 | 73 | 1015.7 |
| 20260504150401 | 73 | 142 | 1.7 | 6.1 | 0.00 | 0.00 | 0.00 | 74 | 1015.6 |
| 20260504141125 | 67 | 152 | 1.7 | 8.7 | 0.00 | 0.00 | 0.00 | 80 | 1015.8 |
| 20260504140620 | 66 | 125 | 0.9 | 4.3 | 0.00 | 0.00 | 0.00 | 81 | 1015.7 |
| 20260504140123 | 65 | 145 | 1.7 | 6.1 | 0.00 | 0.00 | 0.00 | 82 | 1015.6 |
| 20260504140117 | 66 | 137 | 1.7 | 6.1 | 0.00 | 0.00 | 0.00 | 82 | 1015.6 |
| 20260504130611 | 61 | 98 | 0.9 | 4.3 | 0.00 | 0.00 | 0.00 | 83 | 1015.7 |
| 20260504130111 | 61 | 119 | 0.0 | 1.7 | 0.00 | 0.00 | 0.00 | 83 | 1015.6 |
| 20260504120107 | 60 | 154 | 0.0 | 0.0 | 0.00 | 0.00 | 0.00 | 80 | 1015.4 |
| 20260504110601 | 61 | 154 | 0.0 | 0.0 | 0.00 | 0.00 | 0.00 | 80 | 1015.3 |
| 20260504110104 | 61 | 154 | 0.0 | 0.9 | 0.00 | 0.00 | 0.00 | 80 | 1015.2 |
| 20260504100551 | 62 | 154 | 0.0 | 0.0 | 0.00 | 0.00 | 0.00 | 78 | 1015.5 |
| 20260504081520 | 62 | 154 | 0.0 | 0.9 | 0.00 | 0.00 | 0.00 | 75 | 1016.1 |
| 20260504081018 | 62 | 154 | 0.0 | 0.0 | 0.00 | 0.00 | 0.00 | 75 | 1016.2 |
| 20260504080516 | 63 | 154 | 0.0 | 0.0 | 0.00 | 0.00 | 0.00 | 75 | 1016.4 |
| 20260504050711 | 66 | 146 | 0.0 | 0.9 | 0.00 | 0.00 | 0.00 | 68 | 1018.1 |
| 20260504050209 | 66 | 146 | 0.0 | 0.9 | 0.00 | 0.00 | 0.00 | 68 | 1018.1 |
| 20260504045439 | 66 | 146 | 0.0 | 0.9 | 0.00 | 0.00 | 0.00 | 67 | 1018.1 |
| 20260504044939 | 66 | 146 | 0.0 | 0.9 | 0.00 | 0.00 | 0.00 | 67 | 1018.2 |
| 20260504044440 | 66 | 146 | 0.0 | 0.9 | 0.00 | 0.00 | 0.00 | 67 | 1018.2 |
| 20260504043938 | 67 | 146 | 0.0 | 0.9 | 0.00 | 0.00 | 0.00 | 66 | 1018.2 |
| 20260504043439 | 67 | 146 | 0.0 | 0.9 | 0.00 | 0.00 | 0.00 | 66 | 1018.3 |
| 20260504042938 | 67 | 146 | 0.0 | 0.9 | 0.00 | 0.00 | 0.00 | 66 | 1018.2 |
| 20260504042439 | 67 | 146 | 0.0 | 2.6 | 0.00 | 0.00 | 0.00 | 65 | 1018.3 |
| 20260504041937 | 67 | 146 | 0.0 | 2.6 | 0.00 | 0.00 | 0.00 | 65 | 1018.3 |
| 20260504041441 | 67 | 146 | 0.0 | 2.6 | 0.00 | 0.00 | 0.00 | 65 | 1018.3 |
| 20260504040939 | 68 | 146 | 0.0 | 2.6 | 0.00 | 0.00 | 0.00 | 65 | 1018.3 |
| 20260504040710 | 68 | 140 | 0.0 | 0.9 | 0.00 | 0.00 | 0.00 | 65 | 1018.2 |
| 20260504035938 | 68 | 140 | 0.0 | 2.6 | 0.00 | 0.00 | 0.00 | 64 | 1018.2 |
| 20260504035437 | 68 | 140 | 0.0 | 2.6 | 0.00 | 0.00 | 0.00 | 64 | 1018.2 |
| 20260504034937 | 68 | 140 | 0.0 | 2.6 | 0.00 | 0.00 | 0.00 | 64 | 1018.2 |
| 20260504034437 | 69 | 140 | 0.0 | 2.6 | 0.00 | 0.00 | 0.00 | 64 | 1018.3 |
| 20260504034207 | 69 | 140 | 0.0 | 0.9 | 0.00 | 0.00 | 0.00 | 63 | 1018.3 |
| 20260504033707 | 69 | 140 | 0.0 | 2.6 | 0.00 | 0.00 | 0.00 | 63 | 1018.3 |
| 20260504033208 | 69 | 140 | 0.9 | 2.6 | 0.00 | 0.00 | 0.00 | 63 | 1018.3 |
| 20260504032707 | 69 | 140 | 0.9 | 3.5 | 0.00 | 0.00 | 0.00 | 63 | 1018.3 |
| 20260504031934 | 69 | 162 | 0.9 | 3.5 | 0.00 | 0.00 | 0.00 | 63 | 1018.3 |
| 20260504031434 | 70 | 162 | 0.0 | 3.5 | 0.00 | 0.00 | 0.00 | 62 | 1018.2 |
| 20260504030935 | 70 | 168 | 0.0 | 1.7 | 0.00 | 0.00 | 0.00 | 62 | 1018.3 |
| 20260504030435 | 70 | 168 | 0.9 | 3.5 | 0.00 | 0.00 | 0.00 | 62 | 1018.2 |
| 20260504025932 | 70 | 168 | 0.9 | 3.5 | 0.00 | 0.00 | 0.00 | 62 | 1018.1 |
| 20260504025433 | 71 | 166 | 0.9 | 3.5 | 0.00 | 0.00 | 0.00 | 60 | 1018.0 |
| 20260504024934 | 71 | 180 | 0.0 | 4.3 | 0.00 | 0.00 | 0.00 | 59 | 1018.0 |
| 20260504024929 | 71 | 102 | 0.9 | 4.3 | 0.00 | 0.00 | 0.00 | 59 | 1018.0 |
| 20260504023926 | 71 | 173 | 0.9 | 2.6 | 0.00 | 0.00 | 0.00 | 59 | 1018.0 |
| 20260504023427 | 71 | 173 | 0.9 | 2.6 | 0.00 | 0.00 | 0.00 | 58 | 1018.0 |
| 20260504023200 | 72 | 173 | 0.9 | 3.5 | 0.00 | 0.00 | 0.00 | 58 | 1018.0 |
| 20260504022657 | 72 | 173 | 0.9 | 3.5 | 0.00 | 0.00 | 0.00 | 58 | 1018.1 |
| 20260504022159 | 72 | 148 | 0.9 | 6.1 | 0.00 | 0.00 | 0.00 | 58 | 1018.0 |
| 20260504021427 | 72 | 155 | 1.7 | 6.1 | 0.00 | 0.00 | 0.00 | 57 | 1017.9 |
| 20260504021157 | 73 | 138 | 1.7 | 6.1 | 0.00 | 0.00 | 0.00 | 56 | 1017.8 |
| 20260504020426 | 73 | 136 | 1.7 | 6.1 | 0.00 | 0.00 | 0.00 | 55 | 1017.8 |
| 20260504020157 | 73 | 134 | 1.7 | 9.6 | 0.00 | 0.00 | 0.00 | 55 | 1017.9 |
| 20260504015427 | 73 | 163 | 1.7 | 9.6 | 0.00 | 0.00 | 0.00 | 54 | 1017.9 |
| 20260504015155 | 73 | 169 | 2.6 | 10.4 | 0.00 | 0.00 | 0.00 | 54 | 1017.9 |
| 20260504014424 | 73 | 163 | 2.6 | 10.4 | 0.00 | 0.00 | 0.00 | 53 | 1017.8 |
| 20260504014158 | 73 | 0 | 1.7 | 5.2 | 0.00 | 0.00 | 0.00 | 53 | 1017.7 |
| 20260504013652 | 74 | 0 | 1.7 | 8.7 | 0.00 | 0.00 | 0.00 | 53 | 1017.7 |
| 20260504012926 | 74 | 0 | 2.6 | 8.7 | 0.00 | 0.00 | 0.00 | 52 | 1017.7 |
| 20260504012422 | 74 | 0 | 1.7 | 9.6 | 0.00 | 0.00 | 0.00 | 52 | 1017.6 |
| 20260504012418 | 74 | 0 | 1.7 | 7.0 | 0.00 | 0.00 | 0.00 | 52 | 1017.7 |
| 20260504011418 | 74 | 0 | 1.7 | 9.6 | 0.00 | 0.00 | 0.00 | 51 | 1017.6 |
| 20260504010916 | 74 | 0 | 1.7 | 7.0 | 0.00 | 0.00 | 0.00 | 51 | 1017.5 |
| 20260504010414 | 74 | 0 | 1.7 | 7.0 | 0.00 | 0.00 | 0.00 | 51 | 1017.6 |
| 20260504010147 | 75 | 0 | 1.7 | 7.0 | 0.00 | 0.00 | 0.00 | 51 | 1017.6 |
| 20260504005414 | 75 | 0 | 2.6 | 7.0 | 0.00 | 0.00 | 0.00 | 50 | 1017.5 |
| 20260504004915 | 75 | 0 | 1.7 | 5.2 | 0.00 | 0.00 | 0.00 | 51 | 1017.5 |
| 20260504004646 | 75 | 0 | 1.7 | 5.2 | 0.00 | 0.00 | 0.00 | 50 | 1017.6 |
| 20260504003913 | 75 | 0 | 1.7 | 5.2 | 0.00 | 0.00 | 0.00 | 50 | 1017.6 |
| 20260504003411 | 75 | 0 | 1.7 | 5.2 | 0.00 | 0.00 | 0.00 | 49 | 1017.5 |
| 20260504002909 | 76 | 0 | 1.7 | 5.2 | 0.00 | 0.00 | 0.00 | 50 | 1017.4 |
| 20260504002408 | 76 | 0 | 0.9 | 5.2 | 0.00 | 0.00 | 0.00 | 51 | 1017.5 |
| 20260504001904 | 76 | 0 | 0.9 | 7.0 | 0.00 | 0.00 | 0.00 | 51 | 1017.5 |
| 20260504001402 | 76 | 0 | 0.9 | 7.0 | 0.00 | 0.00 | 0.00 | 51 | 1017.5 |
| 20260504001135 | 76 | 131 | 1.7 | 7.0 | 0.00 | 0.00 | 0.00 | 49 | 1017.3 |
| 20260504000401 | 76 | 109 | 2.6 | 7.0 | 0.00 | 0.00 | 0.00 | 49 | 1017.5 |
| 20260504000128 | 76 | 146 | 1.7 | 7.8 | 0.00 | 0.00 | 0.00 | 48 | 1017.5 |
| 20260503235359 | 76 | 145 | 1.7 | 7.8 | 0.00 | 0.00 | 0.00 | 49 | 1017.6 |
| 20260503234858 | 76 | 163 | 2.6 | 9.6 | 0.00 | 0.00 | 0.00 | 48 | 1017.6 |
| 20260503234357 | 76 | 136 | 2.6 | 9.6 | 0.00 | 0.00 | 0.00 | 51 | 1017.5 |
| 20260503233857 | 77 | 134 | 2.6 | 9.6 | 0.00 | 0.00 | 0.00 | 51 | 1017.6 |
| 20260503233357 | 77 | 133 | 2.6 | 9.6 | 0.00 | 0.00 | 0.00 | 48 | 1017.7 |
| 20260503232858 | 77 | 130 | 1.7 | 7.8 | 0.00 | 0.00 | 0.00 | 47 | 1017.7 |
| 20260503232353 | 77 | 178 | 2.6 | 10.4 | 0.00 | 0.00 | 0.00 | 47 | 1017.8 |
| 20260503231854 | 77 | 140 | 2.6 | 10.4 | 0.00 | 0.00 | 0.00 | 46 | 1017.8 |
| 20260503231351 | 77 | 121 | 2.6 | 7.0 | 0.00 | 0.00 | 0.00 | 47 | 1017.8 |
| 20260503230852 | 78 | 126 | 2.6 | 7.8 | 0.00 | 0.00 | 0.00 | 46 | 1017.7 |
| 20260503230353 | 78 | 88 | 2.6 | 7.8 | 0.00 | 0.00 | 0.00 | 48 | 1017.6 |
| 20260503230122 | 78 | 170 | 2.6 | 7.8 | 0.00 | 0.00 | 0.00 | 46 | 1017.7 |
| 20260503225348 | 78 | 142 | 3.5 | 12.2 | 0.00 | 0.00 | 0.00 | 47 | 1017.8 |
| 20260503224844 | 78 | 160 | 3.5 | 12.2 | 0.00 | 0.00 | 0.00 | 45 | 1017.9 |
| 20260503224344 | 78 | 136 | 1.7 | 5.2 | 0.00 | 0.00 | 0.00 | 45 | 1017.9 |
| 20260503223842 | 78 | 150 | 0.9 | 5.2 | 0.00 | 0.00 | 0.00 | 43 | 1017.9 |
| 20260503223341 | 78 | 142 | 0.9 | 6.1 | 0.00 | 0.00 | 0.00 | 45 | 1017.9 |
| 20260503222841 | 77 | 144 | 1.7 | 6.1 | 0.00 | 0.00 | 0.00 | 45 | 1018.0 |
| 20260503222336 | 78 | 141 | 1.7 | 6.1 | 0.00 | 0.00 | 0.00 | 43 | 1018.2 |
| 20260503221835 | 79 | 132 | 1.7 | 6.1 | 0.00 | 0.00 | 0.00 | 37 | 1018.3 |
| 20260503221335 | 79 | 164 | 0.9 | 7.8 | 0.00 | 0.00 | 0.00 | 39 | 1018.3 |